Location: Betz
(49.1556°N, 2.9558°E)
Time: 22:23:16
(UTC+00:00)

Cosmos 407 Rocket - Pass Details

Date: 18 September 2019
Orbit: 744 x 786 km, 74.0° (Epoch: 20 October)

Event Time Altitude Azimuth Distance (km) Brightness Sun altitude
Rises 19:50:59 0° 334° (NNW) 3,206 7.6 -19.0°
Reaches altitude 10° 19:53:23 10° 330° (NNW) 2,274 6.8 -19.3°
Maximum altitude 19:58:26 60° 252° (WSW) 854 3.9 -20.1°
Enters shadow 20:01:45 21° 179° (S) 1,626 4.9 -20.5°
